Regional Weather Roundup
Issued by NWS

Home | Current Version | Previous Version | Graphics & Text | Print | Product List | Glossary On
Versions: 1 2 3 4 5 6 7 8 9 10 11 12 13 14 15 16 17 18 19 20 21 22 23 24 25 26 27 28 29 30 31 32 33 34 35 36 37 38 39 40 41 42 43 44 45 46 47 48 49 50
000
ASUS45 KSLC 191910
RWRUT

UTAH REGIONAL WEATHER ROUNDUP
NATIONAL WEATHER SERVICE SALT LAKE CITY UT
100 PM MDT SUN OCT 19 2014

UTZ001>011-023>025-192000-

NORTHERN UTAH

CITY           SKY/WX    TMP DP  RH WIND       PRES   REMARKS
BRIGHAM CITY   SUNNY     64  35  34 CALM      30.12F
HILL AFB       SUNNY     65  36  34 NW2       30.12F
LOGAN          SUNNY     61  39  44 CALM      30.12F
OGDEN          SUNNY     66  37  34 NW5       30.11F
PROVO AIRPORT  SUNNY     59  43  55 VRB5      30.12F
SALT LAKE CITY MOSUNNY   68  36  30 NE3       30.09F
VERNAL         SUNNY     61  36  39 CALM      30.17F
WENDOVER       SUNNY     61  34  36 SE6       30.11F
HEBER CITY     SUNNY     61  34  36 CALM      30.14F
WEST JORDAN    SUNNY     66  43  42 CALM      30.12F

$$

UTZ012>022-026-027-192000-

SOUTHERN/CENTRAL UTAH

CITY           SKY/WX    TMP DP  RH WIND       PRES   REMARKS
BLANDING       SUNNY     65  42  42 SE5       30.23F
BRYCE CANYON   SUNNY     61  32  33 SE6       30.24F
CEDAR CITY     SUNNY     66  36  32 CALM      30.12F
DELTA          SUNNY     67  35  30 CALM      30.10F
HANKSVILLE       N/A     70  32  24 CALM      30.13F
MILFORD        SUNNY     69  36  29 NE9       30.10F
MOAB/CYNLANDS  SUNNY     70  35  27 VRB3      30.09F
PRICE          SUNNY     66  30  26 S3        30.17F
ST GEORGE      CLEAR     73  39  29 N7        29.99F
KANAB            N/A     73  36  25 NE10G17   30.11F

$$

REGIONAL REPORTS     COLORADO/ARIZONA

CITY           SKY/WX    TMP DP  RH WIND       PRES   REMARKS
CRAIG, CO      SUNNY     67  31  26 CALM      30.18F
GRAND JUNCTION SUNNY     70  42  36 CALM      30.10F
RIFLE          SUNNY     67  37  33 VRB3      30.14F
MONTROSE       SUNNY     68  37  32 VRB5      30.16F
CORTEZ         SUNNY     70  43  37 W8        30.15F
PAGE, AZ       NOT AVBL
GRAND CANYON   MOSUNNY   68  34  28 NE6       30.17F
KINGMAN        SUNNY     81  41  24 S7G23     29.97F
FLAGSTAFF      PTSUNNY   62  38  40 S6        30.18F

$$

REGIONAL REPORTS    NEVADA/IDAHO/WYOMING

CITY           SKY/WX    TMP DP  RH WIND       PRES   REMARKS
LAS VEGAS, NV  MOSUNNY   83  38  20 CALM      29.89F
ELY            SUNNY     67  34  29 VRB3      30.14F
ELKO           SUNNY     68  25  19 VRB5      30.09F
POCATELLO, ID  SUNNY     64  36  35 NE6       30.12F
BURLEY         SUNNY     66  38  35 NE10      30.06F
EVANSTON, WY   MOSUNNY   62  31  31 N6        30.22F
ROCK SPRINGS   SUNNY     61  30  31 NE3       30.21F
KEMMERER       SUNNY     63  30  29 SE3       30.23F

$$



USA.gov is the U.S. government's official web portal to all federal, state and local government web resources and services.